カタログに戻る

GORIZONT 1

運用中通信HEO
NORAD 11158·PAYLOAD·🇷🇺 Russia

打ち上げ Dec 19, 1978 から Baikonur Cosmodrome

Loading…

次のパス (今後24時間)

TLE

最新Source: Space-Track

元期: Sep 13, 2026, 06:07 UTC

1 11158U 78118A   26256.25509103 -.00000137  00000-0  00000-0 0  9999
2 11158  12.4609 151.7840 3038708   4.0731 358.0763  1.00232562123829

AllMySatでGORIZONT 1をリアルタイム追跡

Download on the App Store